{"data":{"norad_id":63570,"epoch":"2026-05-24T23:49:47.394624Z","epoch_age_seconds":86310,"freshness":"FRESH","line1":"1 63570U 25076B   26144.99290966  .00021946  00000+0  80427-3 0  9993","line2":"2 63570  42.9956 253.9835 0001275 274.2831  85.7875 15.27595346 63450","mean_motion":15.27595346,"eccentricity":0.0001275,"inclination_deg":42.9956,"raan_deg":253.9835,"arg_perigee_deg":274.2831,"mean_anomaly_deg":85.7875,"bstar":0.00080427,"rev_number":6345,"period_min":94.265801723646,"perigee_km":482.12834961116,"apogee_km":483.87794034813,"semimajor_km":6861.1401449796,"source":"CELESTRAK","updated_at":"2026-05-25T13:38:20.045487Z"}}